Home   Weather   43°02'N, 88°11'W   Past weeks
Flag for USA

Past Weather in 43°02'N, 88°11'W, USA — Yesterday and Last 2 Weeks

Now
41 °F

Cloudy.


Feels Like: 33 °F
Forecast: 51 / 36 °F
Wind: 14 mph from Southwest

Location: Waukesha County Airport

Current Time: Oct 22, 2019 at 7:03:22 pm

Latest Report: Oct 22, 2019 at 5:45 pm


Visibility: 10 mi

Pressure: 29.63 "Hg

Humidity: 93%

Dew Point: 39 °F

Location of 43°02'N, 88°11'WLocation

Past Weather in 43°02'N, 88°11'W — Graph

°F

43°02'N, 88°11'W Temperature Yesterday

Maximum temperature yesterday: 63 °F (at 3:45 pm)
Minimum temperature yesterday: 43 °F (at 12:15 am)
Average temperature yesterday: 50 °F

High & Low Weather Summary for the Past Weeks

 TemperatureHumidityPressure
High68 °F (Oct 9, 1:45 pm)100% (Oct 8, 3:35 am)30.25 "Hg (Oct 8, 3:35 am)
Low32 °F (Oct 12, 5:35 am)37% (Oct 8, 2:45 pm)29.35 "Hg (Oct 22, 5:35 am)
Average45 °F80%29.91 "Hg
* Reported Oct 7 5:45 pm — Oct 22 5:45 pm, 43°02'N, 88°11'W. Weather by CustomWeather, © 2019

Note: Actual official high and low records may vary slightly from our data, if they occured in-between our weather recording intervals... More about our weather records

Advertising

43°02'N, 88°11'W Weather History for the Previous 24 Hours

Scroll right to see more
 ConditionsComfort  
Time TempWeatherWind HumidityBarometerVisibility
5:45 pm
Tue, Oct 22
41 °FCloudy.14 mph93%29.63 "Hg10 mi
5:08 pm43 °FLight rain. Mostly cloudy.12 mph81%29.61 "Hg7 mi
4:45 pm45 °FOvercast.14 mph71%29.60 "Hg10 mi
3:45 pm43 °FOvercast.15 mph81%29.58 "Hg10 mi
2:45 pm45 °FOvercast.21 mph71%29.55 "Hg10 mi
1:45 pm45 °FOvercast.20 mph71%29.52 "Hg10 mi
12:45 pm45 °FOvercast.20 mph76%29.50 "Hg10 mi
11:45 am45 °FOvercast.13 mph76%29.49 "Hg10 mi
10:45 am45 °FOvercast.17 mph81%29.46 "Hg10 mi
9:45 am45 °FOvercast.16 mph81%29.43 "Hg4 mi
8:45 am45 °FOvercast.18 mph76%29.40 "Hg10 mi
7:45 am45 °FOvercast.16 mph76%29.37 "Hg10 mi
6:45 am45 °FMostly cloudy.15 mph81%29.36 "Hg10 mi
5:45 am45 °FOvercast.17 mph81%29.35 "Hg10 mi
5:35 am45 °FMostly cloudy.16 mph81%29.35 "Hg10 mi
5:15 am45 °FMostly cloudy.13 mph81%29.36 "Hg10 mi
4:55 am45 °FOvercast.17 mph76%29.36 "Hg10 mi
4:35 am45 °FMostly cloudy.16 mph76%29.36 "Hg10 mi
4:15 am45 °FMostly cloudy.14 mph76%29.36 "Hg10 mi
3:55 am45 °FMostly cloudy.14 mph76%29.37 "Hg10 mi
3:35 am45 °FOvercast.15 mph76%29.38 "Hg10 mi
3:15 am45 °FOvercast.12 mph81%29.39 "Hg10 mi
2:55 am45 °FOvercast.15 mph87%29.40 "Hg10 mi
2:35 am45 °FLight rain. Overcast.13 mph87%29.40 "Hg7 mi
2:15 am48 °FOvercast.13 mph66%29.38 "Hg10 mi
1:55 am46 °FOvercast.14 mph71%29.39 "Hg10 mi
1:35 am48 °FOvercast.10 mph66%29.40 "Hg10 mi
1:15 am48 °FMostly cloudy.9 mph66%29.41 "Hg10 mi
12:55 am48 °FMostly cloudy.10 mph66%29.42 "Hg10 mi
12:35 am48 °FPassing clouds.9 mph66%29.42 "Hg10 mi
12:15 am48 °FPassing clouds.13 mph66%29.42 "Hg10 mi
11:55 pm
Mon, Oct 21
48 °FPartly cloudy.13 mph66%29.43 "Hg10 mi
11:35 pm48 °FPassing clouds.17 mph66%29.44 "Hg10 mi
11:15 pm48 °FOvercast.12 mph66%29.45 "Hg10 mi
10:55 pm48 °FMostly cloudy.9 mph66%29.46 "Hg10 mi
10:35 pm50 °FMostly cloudy.9 mph62%29.46 "Hg10 mi
10:15 pm50 °FOvercast.13 mph62%29.46 "Hg10 mi
9:55 pm50 °FOvercast.12 mph58%29.47 "Hg10 mi
9:35 pm50 °FOvercast.10 mph58%29.47 "Hg10 mi
9:15 pm50 °FOvercast.14 mph58%29.47 "Hg10 mi
8:45 pm50 °FMostly cloudy.21 mph58%29.48 "Hg10 mi
7:45 pm54 °FPassing clouds.23 mph54%29.47 "Hg10 mi
Weather by CustomWeather, © 2019

See weather overview